EW0259 Weather Reports


time (UTC)temp
F
wind
direction
speed
knots
gust
knots
rain 1hr
in
rain 24hr
in
rain mn
in
humidity
%
barometer
mb
20260901225238 64 334 0.0 3.5 0.00 0.00 0.00 76 1011.6
20260901224724 64 159 0.0 3.5 0.00 0.00 0.00 76 1011.5
20260901224252 64 315 0.9 5.2 0.00 0.00 0.00 76 1011.6
20260901223807 64 295 0.9 5.2 0.00 0.00 0.00 76 1011.6
20260901223735 64 295 0.9 5.2 0.00 0.00 0.00 76 1011.6
20260901223222 64 115 0.0 2.6 0.00 0.00 0.00 76 1011.6
20260901222809 64 313 0.0 3.5 0.00 0.00 0.00 76 1011.7
20260901222306 64 57 0.9 3.5 0.00 0.00 0.00 76 1011.6
20260901221720 64 303 1.7 3.5 0.00 0.00 0.00 75 1011.7
20260901221227 64 205 0.9 2.6 0.00 0.00 0.00 76 1011.6
20260901220734 64 149 0.9 5.2 0.00 0.00 0.00 76 1011.6
20260901220221 65 285 2.6 5.2 0.00 0.00 0.00 74 1011.6
20260901215728 65 14 0.9 5.2 0.00 0.00 0.00 74 1011.4
20260901215256 65 283 1.7 6.1 0.00 0.00 0.00 75 1011.4
20260901215224 65 283 1.7 6.1 0.00 0.00 0.00 75 1011.4
20260901214257 65 52 0.9 7.0 0.00 0.00 0.00 75 1011.4
20260901213753 64 292 0.9 7.0 0.00 0.00 0.00 75 1011.4
20260901213232 65 265 2.6 7.0 0.00 0.00 0.00 74 1011.4
20260901212739 65 165 1.7 6.1 0.00 0.00 0.00 74 1011.5
20260901212227 65 235 0.9 5.2 0.00 0.00 0.00 74 1011.6
20260901211733 65 252 0.9 2.6 0.00 0.00 0.00 73 1011.6
20260901211220 66 276 0.9 3.5 0.00 0.00 0.00 74 1011.5
20260901210808 65 302 0.9 3.5 0.00 0.00 0.00 74 1011.7
20260901210304 65 262 1.7 3.5 0.00 0.00 0.00 74 1011.6
20260901205800 65 283 1.7 2.6 0.00 0.00 0.00 75 1011.4
20260901205236 65 302 0.9 1.7 0.00 0.00 0.00 75 1011.5
20260901204722 65 297 0.0 1.7 0.00 0.00 0.00 75 1011.6
20260901204229 65 301 0.9 1.7 0.00 0.00 0.00 75 1011.6
20260901203736 65 281 0.9 2.6 0.00 0.00 0.00 75 1011.6
20260901203303 65 153 0.9 2.6 0.00 0.00 0.00 76 1011.7
20260901203231 65 153 0.9 2.6 0.00 0.00 0.00 76 1011.7
20260901202759 64 66 0.9 2.6 0.00 0.00 0.00 76 1011.7
20260901202236 64 71 0.0 1.7 0.00 0.00 0.00 77 1011.7
20260901201801 64 57 0.0 1.7 0.00 0.00 0.00 77 1011.6
20260901201221 64 56 0.9 2.6 0.00 0.00 0.00 77 1011.6
20260901200728 64 74 0.9 2.6 0.00 0.00 0.00 77 1011.6
20260901200235 64 84 0.9 2.6 0.00 0.00 0.00 77 1011.6
20260901195722 64 85 1.7 3.5 0.00 0.00 0.00 77 1011.6
20260901195231 64 109 1.7 5.2 0.00 0.00 0.00 77 1011.6
20260901194736 64 92 1.7 5.2 0.00 0.00 0.00 76 1011.7
20260901194223 64 146 2.6 4.3 0.00 0.00 0.00 77 1011.7
20260901193730 64 74 2.6 4.3 0.00 0.00 0.00 77 1011.7
20260901193237 64 63 0.9 1.7 0.00 0.00 0.00 77 1011.8
20260901192724 63 84 0.0 2.6 0.00 0.00 0.00 78 1011.8
20260901192253 63 84 0.9 4.3 0.00 0.00 0.00 78 1011.7
20260901191731 63 80 0.9 4.3 0.00 0.00 0.00 77 1011.7
20260901191238 64 51 0.0 2.6 0.00 0.00 0.00 78 1011.8
20260901190806 64 80 0.9 4.3 0.00 0.00 0.00 77 1011.8
20260901190221 64 86 0.9 4.3 0.00 0.00 0.00 77 1011.8
20260901185728 64 86 0.9 5.2 0.00 0.00 0.00 78 1011.8
20260901185231 64 92 1.7 5.2 0.00 0.00 0.00 77 1011.8
20260901184757 64 78 1.7 5.2 0.00 0.00 0.00 76 1011.8
20260901184232 64 83 0.0 2.6 0.00 0.00 0.00 78 1011.9
20260901183739 64 83 0.0 2.6 0.00 0.00 0.00 77 1011.8
20260901183226 64 105 0.9 1.7 0.00 0.00 0.00 77 1011.8
20260901182732 63 236 0.9 1.7 0.00 0.00 0.00 78 1011.8
20260901182240 63 80 0.0 2.6 0.00 0.00 0.00 79 1011.7
20260901181730 63 74 0.9 2.6 0.00 0.00 0.00 79 1011.7
20260901181237 63 134 2.6 2.6 0.00 0.00 0.00 79 1011.7
20260901180805 63 76 1.7 2.6 0.00 0.00 0.00 80 1011.8
20260901180220 62 94 0.9 3.5 0.00 0.00 0.00 80 1011.7
20260901175727 62 130 0.9 2.6 0.00 0.00 0.00 80 1011.7
20260901175255 62 102 0.9 2.6 0.00 0.00 0.00 81 1011.7
20260901174729 62 169 0.0 4.3 0.00 0.00 0.00 81 1011.7
20260901174256 62 92 1.7 3.5 0.00 0.00 0.00 81 1011.7
20260901173732 62 199 0.9 2.6 0.00 0.00 0.00 81 1011.6
20260901173239 62 92 0.9 2.6 0.00 0.00 0.00 81 1011.6
20260901172726 62 63 1.7 2.6 0.00 0.00 0.00 81 1011.4
20260901172234 62 84 0.9 2.6 0.00 0.00 0.00 82 1011.5
20260901171800 61 86 0.0 1.7 0.00 0.00 0.00 82 1011.4
20260901171256 61 96 0.0 2.6 0.00 0.00 0.00 83 1011.4
20260901171225 61 96 0.0 2.6 0.00 0.00 0.00 83 1011.4
20260901170731 61 86 0.9 2.6 0.00 0.00 0.00 83 1011.4
20260901170222 61 93 0.9 2.6 0.00 0.00 0.00 83 1011.4
20260901165729 61 120 0.0 2.6 0.00 0.00 0.00 84 1011.3
20260901165257 60 149 0.9 2.6 0.00 0.00 0.00 84 1011.4
20260901165225 60 149 0.9 2.6 0.00 0.00 0.00 84 1011.4
20260901164731 60 196 0.9 2.6 0.00 0.00 0.00 84 1011.5
20260901164238 60 75 0.9 2.6 0.00 0.00 0.00 85 1011.6
20260901163806 60 182 0.9 2.6 0.00 0.00 0.00 85 1011.7
20260901163301 60 49 0.9 1.7 0.00 0.00 0.00 85 1011.8
20260901163229 60 49 0.9 1.7 0.00 0.00 0.00 85 1011.8
20260901162736 59 63 0.9 1.7 0.00 0.00 0.00 86 1011.8
20260901162224 59 101 0.0 2.6 0.00 0.00 0.00 87 1011.8
20260901161810 59 64 0.9 2.6 0.00 0.00 0.00 87 1011.8
20260901161226 59 42 0.9 1.7 0.00 0.00 0.00 87 1011.7
20260901160732 59 69 0.9 1.7 0.00 0.00 0.00 88 1011.8
20260901160259 58 130 0.9 2.6 0.00 0.00 0.00 88 1011.9
20260901155734 58 94 0.0 2.6 0.00 0.00 0.00 89 1011.8
20260901155222 58 73 0.0 2.6 0.00 0.00 0.00 90 1011.9
20260901154808 58 355 0.9 5.2 0.00 0.00 0.00 90 1012.0
20260901154737 58 355 0.9 5.2 0.00 0.00 0.00 90 1012.0
20260901154223 57 159 0.9 5.2 0.00 0.00 0.00 90 1012.0
20260901153811 57 36 0.0 0.9 0.00 0.00 0.00 91 1012.1
20260901153739 57 36 0.0 0.9 0.00 0.00 0.00 91 1012.1
20260901153230 57 82 0.0 1.7 0.00 0.00 0.00 91 1012.1
20260901152737 57 77 0.9 1.7 0.00 0.00 0.00 91 1012.0
20260901152306 56 71 0.0 1.7 0.00 0.00 0.00 92 1012.0
20260901152233 56 71 0.0 1.7 0.00 0.00 0.00 92 1012.0
20260901151739 56 69 0.9 1.7 0.00 0.00 0.00 92 1012.0
20260901151221 55 104 0.0 1.7 0.00 0.00 0.00 92 1012.0
20260901150728 55 104 0.0 1.7 0.00 0.00 0.00 93 1012.1
20260901150256 55 9 0.9 1.7 0.00 0.00 0.00 93 1011.9
20260901145811 54 43 0.0 1.7 0.00 0.00 0.00 93 1011.8
20260901145227 54 355 0.0 1.7 0.00 0.00 0.00 93 1011.8
20260901144753 54 340 0.0 0.0 0.00 0.00 0.00 93 1011.9
20260901144721 54 340 0.0 0.0 0.00 0.00 0.00 93 1011.9
20260901144228 54 340 0.0 0.0 0.00 0.00 0.00 93 1011.8
20260901143756 54 340 0.0 0.0 0.00 0.00 0.00 93 1011.7
20260901143310 53 340 0.0 0.0 0.00 0.00 0.00 94 1011.8
20260901142806 53 340 0.0 0.0 0.00 0.00 0.00 94 1011.7
20260901142305 53 340 0.0 0.0 0.00 0.00 0.00 94 1011.7
20260901141737 53 340 0.0 0.0 0.00 0.00 0.00 94 1011.6
20260901141224 53 340 0.0 0.0 0.00 0.00 0.00 93 1011.7
20260901140731 53 340 0.0 0.0 0.00 0.00 0.00 93 1011.6
20260901140238 53 340 0.0 0.0 0.00 0.00 0.00 93 1011.5
20260901135729 53 340 0.0 0.0 0.00 0.00 0.00 93 1011.4
20260901135232 53 340 0.0 0.0 0.00 0.00 0.00 93 1011.4
20260901134758 53 340 0.0 0.0 0.00 0.00 0.00 93 1011.3
20260901134233 53 340 0.0 0.0 0.00 0.00 0.00 93 1011.3
20260901133721 52 340 0.0 0.0 0.00 0.00 0.00 93 1011.3
20260901133227 52 340 0.0 0.0 0.00 0.00 0.00 93 1011.4
20260901132729 52 340 0.0 0.0 0.00 0.00 0.00 92 1011.4
20260901132257 53 340 0.0 0.0 0.00 0.00 0.00 92 1011.4
20260901131732 53 340 0.0 0.0 0.00 0.00 0.00 92 1011.3
20260901131259 53 340 0.0 0.0 0.00 0.00 0.00 92 1011.4
20260901131227 53 340 0.0 0.0 0.00 0.00 0.00 92 1011.4
20260901130734 53 340 0.0 0.0 0.00 0.00 0.00 92 1011.3
20260901130220 53 340 0.0 0.0 0.00 0.00 0.00 92 1011.2
20260901125727 53 340 0.0 0.0 0.00 0.00 0.00 92 1010.9
20260901125235 53 340 0.0 0.0 0.00 0.00 0.00 91 1011.0
20260901124725 53 340 0.0 0.0 0.00 0.00 0.00 91 1011.0
20260901124232 53 340 0.0 0.0 0.00 0.00 0.00 91 1011.0
20260901123739 53 340 0.0 0.0 0.00 0.00 0.00 91 1011.0
20260901123226 53 340 0.0 0.0 0.00 0.00 0.00 91 1011.0
20260901122733 54 340 0.0 0.0 0.00 0.00 0.00 92 1011.0
20260901122302 54 340 0.0 0.0 0.00 0.00 0.00 92 1010.9
20260901121736 54 340 0.0 0.0 0.00 0.00 0.00 93 1010.9
20260901121223 54 340 0.0 0.0 0.00 0.00 0.00 93 1010.8
20260901120730 54 340 0.0 0.0 0.00 0.00 0.00 93 1010.8
20260901120237 54 340 0.0 0.0 0.00 0.00 0.00 93 1010.9
20260901115804 53 340 0.0 0.0 0.00 0.00 0.00 93 1010.7
20260901115224 53 340 0.0 0.0 0.00 0.00 0.00 93 1010.8
20260901114730 53 340 0.0 0.0 0.00 0.00 0.00 93 1010.7
20260901114237 53 340 0.0 0.0 0.00 0.00 0.00 93 1010.5
20260901113724 53 340 0.0 0.0 0.00 0.00 0.00 92 1010.3
20260901113310 53 340 0.0 0.0 0.00 0.00 0.00 92 1010.3
20260901113238 53 340 0.0 0.0 0.00 0.00 0.00 92 1010.3
20260901112806 53 340 0.0 0.0 0.00 0.00 0.00 92 1010.3
20260901112734 53 340 0.0 0.0 0.00 0.00 0.00 92 1010.3
20260901112306 53 340 0.0 0.0 0.00 0.00 0.00 92 1010.2
20260901112230 53 340 0.0 0.0 0.00 0.00 0.00 92 1010.2
20260901111736 53 340 0.0 0.0 0.00 0.00 0.00 92 1010.3
20260901111223 53 340 0.0 0.0 0.00 0.00 0.00 92 1010.2
20260901110810 53 340 0.0 0.0 0.00 0.00 0.00 91 1010.2
20260901110226 53 340 0.0 0.0 0.00 0.00 0.00 91 1010.2
20260901105733 54 340 0.0 0.0 0.00 0.00 0.00 91 1010.2
20260901105221 54 340 0.0 0.0 0.00 0.00 0.00 91 1010.3
20260901104727 54 340 0.0 0.0 0.00 0.00 0.00 91 1010.3
20260901104234 54 340 0.0 0.0 0.00 0.00 0.00 91 1010.3
20260901103725 54 340 0.0 0.0 0.00 0.00 0.00 91 1010.2
20260901103232 54 340 0.0 0.0 0.00 0.00 0.00 91 1010.3
20260901102739 54 340 0.0 0.0 0.00 0.00 0.00 91 1010.2
20260901102308 54 340 0.0 0.0 0.00 0.00 0.00 90 1010.2
20260901101802 54 340 0.0 0.0 0.00 0.00 0.00 90 1010.2
20260901101237 54 340 0.0 0.0 0.00 0.00 0.00 91 1010.1
20260901100724 54 340 0.0 0.0 0.00 0.00 0.00 91 1010.2
20260901100231 55 340 0.0 0.0 0.00 0.00 0.00 90 1010.2
20260901095758 55 340 0.0 0.0 0.00 0.00 0.00 90 1010.0
20260901095234 55 340 0.0 0.0 0.00 0.00 0.00 90 1010.0
20260901094720 55 340 0.0 0.0 0.00 0.00 0.00 90 1010.0
20260901094227 55 340 0.0 0.0 0.00 0.00 0.00 90 1010.0
20260901093734 55 340 0.0 0.0 0.00 0.00 0.00 90 1010.0
20260901093225 55 340 0.0 0.0 0.00 0.00 0.00 89 1010.0
20260901092732 55 340 0.0 0.0 0.00 0.00 0.00 89 1010.0
20260901092300 55 340 0.0 0.0 0.00 0.00 0.00 89 1010.1
20260901092229 55 340 0.0 0.0 0.00 0.00 0.00 89 1010.1
20260901091729 56 340 0.0 0.0 0.00 0.00 0.00 89 1010.1
20260901091236 56 340 0.0 0.0 0.00 0.00 0.00 89 1010.1
20260901090723 56 340 0.0 0.0 0.00 0.00 0.00 89 1010.1
20260901090230 56 340 0.0 0.0 0.00 0.00 0.00 89 1010.1
20260901085756 56 340 0.0 0.0 0.00 0.00 0.00 88 1010.1
20260901085232 56 340 0.0 0.0 0.00 0.00 0.00 88 1010.1
20260901084738 56 340 0.0 0.0 0.00 0.00 0.00 88 1009.9
20260901084225 57 340 0.0 0.0 0.00 0.00 0.00 88 1009.9
20260901083732 57 340 0.0 0.0 0.00 0.00 0.00 88 1010.0
20260901083259 57 340 0.0 0.0 0.00 0.00 0.00 88 1009.9
20260901082738 57 340 0.0 0.0 0.00 0.00 0.00 88 1009.9
20260901082226 57 340 0.0 0.0 0.00 0.00 0.00 88 1009.8
20260901081733 57 340 0.0 0.0 0.00 0.00 0.00 87 1009.9
20260901081239 57 340 0.0 0.0 0.00 0.00 0.00 87 1009.8
20260901080726 57 340 0.0 0.0 0.00 0.00 0.00 87 1009.8
20260901080254 57 340 0.0 0.0 0.00 0.00 0.00 86 1009.7
20260901075729 58 340 0.0 0.0 0.00 0.00 0.00 85 1009.7
20260901075232 58 340 0.0 0.0 0.00 0.00 0.00 85 1009.7
20260901074759 58 340 0.0 0.0 0.00 0.00 0.00 85 1009.7
20260901074234 58 340 0.0 0.0 0.00 0.00 0.00 85 1009.8
20260901073721 58 340 0.0 0.0 0.00 0.00 0.00 85 1009.7
20260901073228 58 340 0.0 0.0 0.00 0.00 0.00 84 1009.7
20260901072739 58 340 0.0 0.0 0.00 0.00 0.00 84 1009.7
20260901072227 59 340 0.0 0.0 0.00 0.00 0.00 84 1009.6
20260901071733 59 340 0.0 0.0 0.00 0.00 0.00 84 1009.7
20260901071220 59 340 0.0 0.0 0.00 0.00 0.00 83 1009.7
20260901070727 59 340 0.0 0.9 0.00 0.00 0.00 83 1009.8
20260901070254 60 340 0.9 0.9 0.00 0.00 0.00 82 1009.7
20260901065810 60 271 0.0 0.0 0.00 0.00 0.00 82 1009.7
20260901065226 60 271 0.0 0.0 0.00 0.00 0.00 82 1009.8
20260901064732 60 271 0.0 0.0 0.00 0.00 0.00 81 1009.7
20260901064239 60 271 0.0 0.0 0.00 0.00 0.00 81 1009.7
20260901063726 61 271 0.0 0.0 0.00 0.00 0.00 80 1009.7
20260901063233 61 271 0.0 0.0 0.00 0.00 0.00 80 1009.7
20260901062724 61 271 0.0 0.0 0.00 0.00 0.00 79 1009.8
20260901062253 62 271 0.0 0.0 0.00 0.00 0.00 79 1009.8
20260901061727 62 271 0.0 0.0 0.00 0.00 0.00 78 1010.0
20260901061234 62 271 0.0 0.0 0.00 0.00 0.00 75 1010.0
20260901060721 62 271 0.0 0.0 0.00 0.00 0.00 75 1010.0
20260901060228 62 271 0.0 0.0 0.00 0.00 0.00 75 1009.9
20260901055755 63 271 0.0 0.0 0.00 0.00 0.00 75 1009.9
20260901055723 63 271 0.0 0.0 0.00 0.00 0.00 75 1009.9
20260901055231 63 271 0.0 0.0 0.00 0.00 0.00 75 1009.8
20260901054757 63 271 0.0 0.0 0.00 0.00 0.00 75 1009.9
20260901054725 63 271 0.0 0.0 0.00 0.00 0.00 75 1009.9
20260901054252 63 271 0.0 0.0 0.00 0.00 0.00 75 1009.9
20260901054220 63 271 0.0 0.0 0.00 0.00 0.00 75 1009.9
20260901053727 63 271 0.0 0.0 0.00 0.00 0.00 75 1010.0
20260901053234 64 271 0.0 1.7 0.00 0.00 0.00 75 1009.9
20260901052801 64 271 0.9 1.7 0.00 0.00 0.00 74 1009.9
20260901052729 64 271 0.9 1.7 0.00 0.00 0.00 74 1009.9
20260901052237 64 304 0.0 0.0 0.00 0.00 0.00 74 1010.0
20260901051803 64 304 0.0 1.7 0.00 0.00 0.00 74 1010.1
20260901051239 64 304 0.0 1.7 0.00 0.00 0.00 74 1010.0
20260901050806 64 304 0.0 0.9 0.00 0.00 0.00 74 1010.0
20260901050225 64 304 0.0 0.0 0.00 0.00 0.00 74 1009.9
20260901045732 65 304 0.0 0.9 0.00 0.00 0.00 73 1009.9
20260901045240 65 304 0.0 1.7 0.00 0.00 0.00 73 1010.0
20260901044727 65 309 0.0 1.7 0.00 0.00 0.00 72 1010.0
20260901044253 65 321 0.0 1.7 0.00 0.00 0.00 72 1010.0
20260901043728 65 321 0.0 1.7 0.00 0.00 0.00 72 1010.0
20260901043235 65 329 0.0 1.7 0.00 0.00 0.00 72 1010.0
20260901042723 65 315 0.9 1.7 0.00 0.00 0.00 71 1010.0
20260901042230 65 310 0.0 2.6 0.00 0.00 0.00 71 1010.0
20260901041755 66 296 0.9 2.6 0.00 0.00 0.00 71 1010.0
20260901041311 66 302 0.0 1.7 0.00 0.00 0.00 71 1010.0
20260901040726 66 290 0.0 1.7 0.00 0.00 0.00 71 1009.9
20260901040233 66 290 0.0 1.7 0.00 0.00 0.00 71 1009.9
20260901035724 66 305 0.0 1.7 0.00 0.00 0.00 71 1009.9
20260901035253 66 310 0.0 1.7 0.00 0.00 0.00 70 1009.9
20260901034727 66 310 0.0 1.7 0.00 0.00 0.00 70 1010.0
20260901034255 66 302 0.0 1.7 0.00 0.00 0.00 70 1009.9
20260901033730 66 283 0.0 2.6 0.00 0.00 0.00 69 1009.8
20260901033237 66 307 0.0 2.6 0.00 0.00 0.00 69 1009.8
20260901032805 66 299 0.0 1.7 0.00 0.00 0.00 68 1009.6
20260901032221 67 300 0.0 1.7 0.00 0.00 0.00 68 1009.7
20260901031727 67 310 0.0 1.7 0.00 0.00 0.00 67 1009.7
20260901031234 67 327 0.9 1.7 0.00 0.00 0.00 67 1009.7
20260901030721 67 281 0.9 1.7 0.00 0.00 0.00 67 1009.5
20260901030228 68 297 0.0 2.6 0.00 0.00 0.00 66 1009.5
20260901025735 68 297 0.0 2.6 0.00 0.00 0.00 66 1009.6
20260901025228 68 302 0.0 1.7 0.00 0.00 0.00 65 1009.5
20260901024734 68 296 0.0 0.9 0.00 0.00 0.00 65 1009.6
20260901024221 68 308 0.0 0.0 0.00 0.00 0.00 65 1009.7
20260901023728 68 310 0.0 0.0 0.00 0.00 0.00 64 1009.7
20260901023235 68 310 0.0 0.0 0.00 0.00 0.00 64 1009.7
20260901022722 69 265 0.0 0.9 0.00 0.00 0.00 64 1009.7
20260901022230 69 265 0.0 0.9 0.00 0.00 0.00 63 1009.7
20260901021757 69 292 0.0 0.0 0.00 0.00 0.00 62 1009.7
20260901021232 69 292 0.0 1.7 0.00 0.00 0.00 62 1009.7
20260901020739 69 264 0.0 1.7 0.00 0.00 0.00 61 1009.7
20260901020226 70 261 0.0 1.7 0.00 0.00 0.00 61 1009.7
20260901015737 70 291 0.0 3.5 0.00 0.00 0.00 60 1009.7
20260901015225 70 336 1.7 3.5 0.00 0.00 0.00 59 1009.7
20260901014731 71 243 0.9 2.6 0.00 0.00 0.00 59 1009.7
20260901014237 71 301 0.9 4.3 0.00 0.00 0.00 58 1009.7
20260901013724 72 259 0.9 4.3 0.00 0.00 0.00 58 1009.7
20260901013309 72 319 0.0 1.7 0.00 0.00 0.00 58 1009.7
20260901013237 72 319 0.0 1.7 0.00 0.00 0.00 58 1009.7
20260901012805 72 311 0.0 2.6 0.00 0.00 0.00 57 1009.8
20260901012221 73 300 0.9 2.6 0.00 0.00 0.00 56 1009.7
20260901011727 73 278 0.9 2.6 0.00 0.00 0.00 56 1009.8
20260901011234 73 302 0.9 2.6 0.00 0.00 0.00 56 1009.8
20260901010721 74 350 1.7 6.1 0.00 0.00 0.00 55 1009.9
20260901010227 74 252 1.7 6.1 0.00 0.00 0.00 54 1009.9
20260901005738 75 338 1.7 4.3 0.00 0.00 0.00 53 1009.8
20260901005227 75 275 0.0 2.6 0.00 0.00 0.00 53 1009.8
20260901004732 75 306 0.9 4.3 0.00 0.00 0.00 53 1009.8
20260901004239 75 30 1.7 6.1 0.00 0.00 0.00 53 1009.7
20260901003806 75 342 1.7 5.2 0.00 0.00 0.00 52 1009.8
20260901003734 75 342 1.7 5.2 0.00 0.00 0.00 52 1009.8
20260901003221 75 331 2.6 6.1 0.00 0.00 0.00 52 1009.9
20260901002728 76 285 2.6 6.1 0.00 0.00 0.00 51 1009.9
20260901002256 76 244 1.7 7.0 0.00 0.00 0.00 51 1010.0
20260901002224 76 244 1.7 7.0 0.00 0.00 0.00 51 1010.0
20260901001810 76 342 3.5 7.0 0.00 0.00 0.00 50 1010.0
20260901001225 76 326 1.7 7.0 0.00 0.00 0.00 51 1010.1
20260901000732 76 292 1.7 7.0 0.00 0.00 0.00 50 1010.1
20260901000241 76 284 3.5 7.0 0.00 0.00 0.00 50 1010.2
20260831235726 77 296 2.6 6.1 0.00 0.00 0.00 49 1010.3
20260831235238 77 247 1.7 7.0 0.00 0.00 0.00 50 1010.3
20260831234724 77 324 2.6 7.0 0.00 0.00 0.00 49 1010.3
20260831234231 77 333 2.6 4.3 0.00 0.00 0.00 49 1010.5
20260831233738 77 321 2.6 4.3 0.00 0.00 0.00 49 1010.5
20260831233225 77 28 1.7 4.3 0.00 0.00 0.00 50 1010.5
20260831232732 77 15 1.7 6.1 0.00 0.00 0.00 50 1010.5
20260831232240 77 45 0.9 7.8 0.00 0.00 0.00 51 1010.5
20260831231726 77 9 2.6 6.1 0.00 0.00 0.00 50 1010.5
20260831231233 77 28 1.7 4.3 0.00 0.00 0.00 51 1010.5
20260831230724 76 343 1.7 7.0 0.00 0.00 0.00 51 1010.6
20260831230231 76 339 2.6 7.0 0.00 0.00 0.00 51 1010.7
20260831225758 77 277 1.7 7.0 0.00 0.00 0.00 50 1010.7
20260831225726 77 277 1.7 7.0 0.00 0.00 0.00 50 1010.7